Flag for Germany Weather past 2 weeks in Hürth, North Rhine-Westphalia, Germany

Now
37 °F

Fog.


Feels Like: 33 °F
Forecast: 35 / 48 °F
Wind: 6 mph from West

Location: Noervenich

Current Time: Mar 5, 2015 at 8:15:29 AM

Latest Report: Mar 5, 2015 at 8:01 AM


Visibility: 2 mi

Pressure: 30.63 "Hg

Humidity: 93%

Dew point: 36 °F

Location of HürthLocation

Historic Weather in Hürth — Graph

°F

Hürth temperature yesterday

Maximum temperature yesterday: 45 °F (at 2:20 PM)
Minimum temperature yesterday: 36 °F (at 2:20 AM)
Average temperature yesterday: 40 °F

Past Weeks' High & Low Weather Summary

 TemperatureHumidityPressure
High52 °F (Mar 1, 11:20 AM)100% (Feb 18, 6:20 AM)30.74 "Hg (Feb 18, 6:20 AM)
Low27 °F (Feb 19, 7:20 AM)50% (Feb 28, 1:20 PM)29.36 "Hg (Feb 21, 4:20 AM)
Average40 °F78%29.93 "Hg
* Reported Feb 18 6:20 AM — Mar 5 6:20 AM, Hürth, Weather by CustomWeather, © 2015

Note: Actual official high and low records may vary slightly from our data, if they occured in-between our weather recording intervals... More about our weather records

Advertising

Hürth weather history for previous 24 hours

 ConditionsComfort  
Time TempWeatherWind HumidityBarometerVisibility
6:20 AM
Thu, Mar 5
36 °FPartly cloudy.2 mph93%30.60 "HgN/A
5:20 AM36 °FPassing clouds.3 mph93%30.60 "HgN/A
4:20 AM37 °FPassing clouds.6 mph93%30.57 "HgN/A
2:20 AM39 °FPassing clouds.7 mph87%30.57 "HgN/A
1:20 AM41 °FPassing clouds.9 mph81%30.54 "HgN/A
12:20 AM39 °FPassing clouds.9 mph87%30.51 "HgN/A
11:20 PM
Wed, Mar 4
39 °FPassing clouds.8 mph87%30.48 "HgN/A
10:20 PM39 °FPartly cloudy.12 mph87%30.45 "HgN/A
9:20 PM39 °FPassing clouds.9 mph87%30.42 "HgN/A
8:20 PM41 °FPartly cloudy.13 mph76%30.39 "HgN/A
7:20 PM41 °FSprinkles. Partly cloudy.9 mph76%30.39 "HgN/A
6:20 PM41 °FPassing clouds.12 mph76%30.36 "HgN/A
5:20 PM41 °FPassing clouds.9 mph81%30.33 "HgN/A
4:20 PM45 °FScattered showers. Partly sunny.14 mph66%30.30 "HgN/A
3:20 PM43 °FSprinkles. Broken clouds.10 mph71%30.27 "HgN/A
2:20 PM45 °FScattered showers. Partly sunny.15 mph66%30.27 "HgN/A
1:20 PM43 °FBroken clouds.13 mph71%30.27 "HgN/A
12:20 PM43 °FPartly sunny.9 mph71%30.27 "HgN/A
11:20 AM41 °FScattered clouds.15 mph76%30.24 "HgN/A
10:59 AM41 °FScattered clouds.14 mph76%30.24 "HgN/A
10:20 AM41 °FPartly sunny.13 mph76%30.24 "HgN/A
9:20 AM37 °FScattered clouds.10 mph87%30.24 "HgN/A
8:20 AM37 °FPassing clouds.7 mph75%30.21 "HgN/A
Weather by CustomWeather, © 2015

See weather overviewHow to use our weather pages